Change the Weather History Date:

Sunday, January 19, 2014

  Actual Average Record
Temperature  
Mean Temperature 30 °F -  
Max Temperature 39 °F 17 °F 46 °F (2015)
Min Temperature 21 °F 1 °F -20 °F (2008)
Degree Days  
Heating Degree Days 35    
Moisture  
Dew Point 25 °F    
Average Humidity 80    
Maximum Humidity 93    
Minimum Humidity 65    
Precipitation  
Precipitation 0.02 in - - ()
Sea Level Pressure  
Sea Level Pressure 29.60 in    
Wind  
Wind Speed 13 mph (West)    
Max Wind Speed 25 mph    
Max Gust Speed 31 mph    
Visibility 10 miles    
Events      
Averages and records for this station are not official NWS values.
T = Trace of Precipitation, MM = Missing Value Source: NWS Daily Summary

Daily Weather History Graph

Daily Weather History Graph

Search for Another Location

Airport or City:

Trip Planner

Search our weather history database for the weather conditions in past years. The results will help you decide how hot, cold, wet, or windy it might be!

Date:

Astronomy

Jan. 19, 2014 Rise Set
Actual Time 7:56 AM CST 5:13 PM CST
Civil Twilight 7:24 AM CST 5:45 PM CST
Nautical Twilight 6:47 AM CST 6:22 PM CST
Astronomical Twilight 6:12 AM CST 6:57 PM CST
Moon 9:04 PM CST (1/19) 9:16 AM CST (1/19)
Length of Visible Light 10h 21m
Length of Day
9h 16m
Waning Gibbous, 89% of the Moon is Illuminated
Jan 19
Waning Gibbous
Jan 23
Last Quarter
Jan 30
New
Feb 6
First Quarter
Feb 14
Full

Hourly Weather History & Observations

Time (CST) Temp. Windchill Dew Point Humidity Pressure Visibility Wind Dir Wind Speed Gust Speed Precip Events Conditions
12:13 AM 28.4 °F 16.2 °F 24.8 °F 86% 29.68 in 10.0 mi WSW 17.3 mph - N/A   Clear
12:33 AM 28.4 °F 16.6 °F 23.0 °F 80% 29.66 in 10.0 mi WSW 16.1 mph - N/A   Clear
12:54 AM 28.4 °F 17.0 °F 23.0 °F 80% 29.64 in 10.0 mi WSW 15.0 mph - N/A   Clear
1:14 AM 28.4 °F 17.0 °F 23.0 °F 80% 29.62 in 10.0 mi SW 15.0 mph - N/A   Clear
1:33 AM 28.4 °F 16.6 °F 24.8 °F 86% 29.61 in 10.0 mi WSW 16.1 mph - N/A   Clear
1:53 AM 30.2 °F 20.2 °F 24.8 °F 80% 29.60 in 10.0 mi SW 12.7 mph - N/A   Clear
2:13 AM 30.2 °F 18.5 °F 23.0 °F 75% 29.60 in 10.0 mi WSW 17.3 mph - N/A   Clear
2:33 AM 30.2 °F 19.3 °F 23.0 °F 75% 29.61 in 10.0 mi WSW 15.0 mph 19.6 mph N/A   Clear
2:54 AM 28.4 °F 17.5 °F 23.0 °F 80% 29.61 in 10.0 mi WSW 13.8 mph - N/A   Clear
3:13 AM 28.4 °F 18.0 °F 23.0 °F 80% 29.61 in 10.0 mi WSW 12.7 mph - N/A   Clear
3:33 AM 30.2 °F 20.2 °F 23.0 °F 75% 29.60 in 10.0 mi WSW 12.7 mph - N/A   Clear
3:53 AM 30.2 °F 20.2 °F 24.8 °F 80% 29.59 in 10.0 mi WSW 12.7 mph - N/A   Clear
4:14 AM 30.2 °F 19.3 °F 24.8 °F 80% 29.59 in 10.0 mi WSW 15.0 mph - N/A   Clear
4:33 AM 30.2 °F 18.9 °F 24.8 °F 80% 29.58 in 10.0 mi West 16.1 mph - N/A   Clear
4:53 AM 30.2 °F 18.9 °F 24.8 °F 80% 29.58 in 10.0 mi West 16.1 mph - N/A   Clear
5:14 AM 30.2 °F 19.3 °F 24.8 °F 80% 29.57 in 10.0 mi West 15.0 mph - N/A   Clear
5:33 AM 32.0 °F 21.6 °F 24.8 °F 75% 29.57 in 10.0 mi West 15.0 mph - N/A   Clear
5:53 AM 32.0 °F 22.1 °F 24.8 °F 75% 29.57 in 10.0 mi West 13.8 mph - N/A   Clear
6:13 AM 30.2 °F 19.8 °F 24.8 °F 80% 29.57 in 10.0 mi West 13.8 mph - N/A   Clear
6:33 AM 28.4 °F 18.0 °F 23.0 °F 80% 29.56 in 10.0 mi West 12.7 mph - N/A   Clear
6:53 AM 28.4 °F 18.0 °F 24.8 °F 86% 29.54 in 10.0 mi West 12.7 mph - N/A   Clear
7:13 AM 26.6 °F 17.5 °F 21.2 °F 80% 29.54 in 10.0 mi WSW 9.2 mph - N/A   Clear
7:34 AM 24.8 °F 14.6 °F 21.2 °F 86% 29.54 in 10.0 mi WSW 10.4 mph - N/A   Clear
7:53 AM 26.6 °F 16.2 °F 21.2 °F 80% 29.54 in 10.0 mi West 11.5 mph - N/A   Clear
8:13 AM 26.6 °F 15.2 °F 23.0 °F 86% 29.55 in 10.0 mi West 13.8 mph - N/A   Clear
8:33 AM 26.6 °F 16.8 °F 21.2 °F 80% 29.56 in 10.0 mi WSW 10.4 mph - N/A   Clear
8:53 AM 26.6 °F 17.5 °F 21.2 °F 80% 29.56 in 10.0 mi West 9.2 mph - N/A   Clear
9:13 AM 26.6 °F 17.5 °F 21.2 °F 80% 29.56 in 10.0 mi West 9.2 mph - N/A   Clear
9:33 AM 28.4 °F 23.3 °F 21.2 °F 74% 29.53 in 10.0 mi WSW 4.6 mph - N/A   Clear
9:53 AM 33.8 °F 28.6 °F 24.8 °F 70% 29.53 in 10.0 mi SW 5.8 mph - N/A   Clear
10:13 AM 33.8 °F 25.8 °F 24.8 °F 70% 29.52 in 10.0 mi SW 10.4 mph - N/A   Clear
10:33 AM 35.6 °F 28.0 °F 26.6 °F 70% 29.52 in 10.0 mi SW 10.4 mph - N/A   Clear
10:53 AM 35.6 °F 26.6 °F 26.6 °F 70% 29.54 in 10.0 mi WSW 13.8 mph - 0.01 in   Clear
11:13 AM 35.6 °F 26.2 °F 26.6 °F 70% 29.53 in 10.0 mi WSW 15.0 mph - N/A   Clear
11:33 AM 37.4 °F 30.3 °F 28.4 °F 70% 29.52 in 10.0 mi West 10.4 mph - 0.01 in   Clear
11:53 AM 37.4 °F 30.8 °F 28.4 °F 70% 29.51 in 10.0 mi West 9.2 mph - 0.01 in   Clear
12:13 PM 39.2 °F 32.5 °F 28.4 °F 65% 29.49 in 10.0 mi West 10.4 mph - N/A   Clear
12:33 PM 39.2 °F 32.5 °F 28.4 °F 65% 29.46 in 10.0 mi WSW 10.4 mph - N/A   Clear
12:53 PM 39.2 °F 30.8 °F 28.4 °F 65% 29.48 in 10.0 mi West 15.0 mph 19.6 mph N/A   Clear
1:13 PM 39.2 °F 31.6 °F 28.4 °F 65% 29.48 in 10.0 mi West 12.7 mph - N/A   Clear
1:33 PM 39.2 °F 31.6 °F 30.2 °F 70% 29.47 in 10.0 mi West 12.7 mph - N/A   Clear
1:53 PM 39.2 °F 32.0 °F 30.2 °F 70% 29.48 in 10.0 mi WNW 11.5 mph - N/A   Clear
2:13 PM 39.2 °F 30.8 °F 30.2 °F 70% 29.48 in 10.0 mi WNW 15.0 mph 19.6 mph N/A   Clear
2:34 PM 39.2 °F 28.3 °F 30.2 °F 70% 29.50 in 10.0 mi NW 25.3 mph 31.1 mph N/A   Clear
2:53 PM 39.2 °F 29.3 °F 30.2 °F 70% 29.51 in 10.0 mi NW 20.7 mph 28.8 mph N/A   Clear
3:14 PM 39.2 °F 29.8 °F 28.4 °F 65% 29.53 in 10.0 mi NW 18.4 mph - N/A   Clear
3:33 PM 37.4 °F 28.2 °F 30.2 °F 75% 29.55 in 10.0 mi NW 16.1 mph - N/A   Clear
3:53 PM 37.4 °F 26.6 °F 30.2 °F 75% 29.56 in 10.0 mi NW 21.9 mph 26.5 mph N/A   Clear
4:13 PM 37.4 °F 28.5 °F 30.2 °F 75% 29.58 in 10.0 mi NNW 15.0 mph 24.2 mph N/A   Clear
4:33 PM 33.8 °F 23.5 °F 28.4 °F 81% 29.60 in 10.0 mi North 16.1 mph - N/A   Scattered Clouds
4:53 PM 32.0 °F 23.0 °F 26.6 °F 80% 29.61 in 10.0 mi North 11.5 mph 16.1 mph N/A   Scattered Clouds
5:13 PM 30.2 °F 21.9 °F 24.8 °F 80% 29.62 in 10.0 mi NNW 9.2 mph - N/A   Scattered Clouds
5:33 PM 28.4 °F 20.4 °F 24.8 °F 86% 29.64 in 10.0 mi North 8.1 mph - N/A   Clear
5:54 PM 26.6 °F 20.0 °F 21.2 °F 80% 29.65 in 10.0 mi North 5.8 mph - N/A   Clear
6:13 PM 26.6 °F 19.1 °F 24.8 °F 93% 29.67 in 10.0 mi North 6.9 mph - N/A   Mostly Cloudy
6:34 PM 28.4 °F 21.2 °F 24.8 °F 86% 29.66 in 10.0 mi NNW 6.9 mph - N/A   Overcast
6:53 PM 26.6 °F 19.1 °F 24.8 °F 93% 29.67 in 10.0 mi NNW 6.9 mph - N/A   Scattered Clouds
7:13 PM 26.6 °F 22.6 °F 21.2 °F 80% 29.68 in 10.0 mi WNW 3.5 mph - N/A   Clear
7:33 PM 24.8 °F 16.9 °F 21.2 °F 86% 29.69 in 10.0 mi WNW 6.9 mph - N/A   Clear
7:53 PM 23.0 °F 14.7 °F 21.2 °F 93% 29.70 in 10.0 mi West 6.9 mph - N/A   Clear
8:13 PM 24.8 °F 16.1 °F 21.2 °F 86% 29.71 in 10.0 mi WNW 8.1 mph - N/A   Clear
8:33 PM 21.2 °F 12.6 °F 17.6 °F 86% 29.71 in 10.0 mi West 6.9 mph - N/A   Clear
8:53 PM 24.8 °F 16.9 °F 21.2 °F 86% 29.71 in 10.0 mi WNW 6.9 mph - N/A   Clear
9:08 PM 21.2 °F 12.6 °F 19.4 °F 93% 29.72 in 10.0 mi West 6.9 mph - N/A   Mostly Cloudy
9:34 PM 26.6 °F 19.1 °F 24.8 °F 93% 29.72 in 10.0 mi West 6.9 mph - N/A   Overcast
9:54 PM 26.6 °F 21.2 °F 24.8 °F 93% 29.73 in 10.0 mi West 4.6 mph - N/A   Overcast
10:13 PM 26.6 °F 21.2 °F 24.8 °F 93% 29.72 in 10.0 mi WNW 4.6 mph - N/A   Overcast
10:33 PM 28.4 °F 23.3 °F 24.8 °F 86% 29.73 in 10.0 mi West 4.6 mph - N/A   Overcast
10:53 PM 28.4 °F 21.2 °F 24.8 °F 86% 29.74 in 10.0 mi West 6.9 mph - N/A   Overcast
11:10 PM 28.4 °F 20.4 °F 26.6 °F 93% 29.75 in 10.0 mi West 8.1 mph - N/A   Overcast
11:33 PM 28.4 °F 22.2 °F 26.6 °F 93% 29.75 in 10.0 mi WNW 5.8 mph - N/A   Overcast
11:53 PM 28.4 °F 21.2 °F 26.6 °F 93% 29.76 in 10.0 mi NW 6.9 mph - N/A   Overcast